• In Deutschland
  • Länderverzeichnis
  • Für 7 Tage
  • Wassertemperatur
  • Satellitenkarten
  • Wetterkarte
  • Widgets
  • user-avatar
    Anmelden

    Stündliche Wetter Baraki Barak

    Heute, 21 Juli, Freitag

    Zeit Temperatur Niederschläge Wind Luftdruck Luftfeuchtigkeit
    00:00 +26°C° 0 mm 2 m/S 597 mmHg 30%
    01:00 +26°C° 0 mm 2 m/S 596 mmHg 32%
    02:00 +25°C° 0 mm 1 m/S 596 mmHg 33%
    03:00 +24°C° 0 mm 1 m/S 596 mmHg 33%
    04:00 +24°C° 0 mm 1 m/S 596 mmHg 33%
    05:00 +23°C° 0 mm 1 m/S 596 mmHg 33%
    06:00 +24°C° 0 mm 1 m/S 596 mmHg 29%
    07:00 +25°C° 0 mm 1 m/S 597 mmHg 26%
    08:00 +26°C° 0 mm 1 m/S 597 mmHg 22%
    09:00 +27°C° 0 mm 1 m/S 598 mmHg 20%
    10:00 +28°C° 0 mm 1 m/S 598 mmHg 18%
    11:00 +29°C° 0 mm 1 m/S 598 mmHg 17%
    12:00 +30°C° 0 mm 1 m/S 598 mmHg 15%
    13:00 +31°C° 0 mm 1 m/S 598 mmHg 14%
    14:00 +32°C° 0 mm 1 m/S 598 mmHg 12%
    15:00 +32°C° 0 mm 2 m/S 598 mmHg 12%
    16:00 +34°C° 0 mm 2 m/S 598 mmHg 11%
    17:00 +34°C° 0 mm 3 m/S 598 mmHg 10%
    18:00 +33°C° 0 mm 3 m/S 598 mmHg 13%
    19:00 +31°C° 0 mm 3 m/S 598 mmHg 15%
    20:00 +30°C° 0 mm 3 m/S 598 mmHg 17%
    21:00 +29°C° 0 mm 3 m/S 597 mmHg 20%
    22:00 +28°C° 0 mm 2 m/S 597 mmHg 23%
    23:00 +27°C° 0 mm 2 m/S 597 mmHg 26%

    Morgen, 22 Juli, Samstag

    Zeit Temperatur Niederschläge Wind Luftdruck Luftfeuchtigkeit
    00:00 +26°C° 0,1 mm 2 m/S 597 mmHg 28%
    01:00 +25°C° 0,1 mm 1 m/S 597 mmHg 29%
    02:00 +25°C° 0,1 mm 1 m/S 596 mmHg 31%
    03:00 +24°C° 0,1 mm 1 m/S 596 mmHg 31%
    04:00 +23°C° 0,1 mm 1 m/S 596 mmHg 31%
    05:00 +23°C° 0,1 mm 1 m/S 596 mmHg 31%
    06:00 +24°C° 0 mm 1 m/S 596 mmHg 27%
    07:00 +25°C° 0 mm 1 m/S 597 mmHg 23%
    08:00 +26°C° 0 mm 1 m/S 598 mmHg 19%
    09:00 +27°C° 0 mm 1 m/S 598 mmHg 18%
    10:00 +28°C° 0 mm 1 m/S 598 mmHg 16%
    11:00 +29°C° 0 mm 1 m/S 598 mmHg 15%
    12:00 +30°C° 0 mm 1 m/S 598 mmHg 14%
    13:00 +31°C° 0 mm 1 m/S 599 mmHg 12%
    14:00 +32°C° 0 mm 1 m/S 599 mmHg 11%
    15:00 +32°C° 0 mm 2 m/S 598 mmHg 11%
    16:00 +34°C° 0 mm 2 m/S 598 mmHg 10%
    17:00 +34°C° 0 mm 3 m/S 598 mmHg 9%
    18:00 +33°C° 0,1 mm 3 m/S 598 mmHg 12%
    19:00 +31°C° 0,1 mm 3 m/S 598 mmHg 15%
    20:00 +30°C° 0,1 mm 3 m/S 598 mmHg 18%
    21:00 +29°C° 0 mm 3 m/S 598 mmHg 21%
    22:00 +28°C° 0 mm 3 m/S 598 mmHg 24%
    23:00 +27°C° 0 mm 2 m/S 598 mmHg 27%

    übermorgen, 23 Juli, Sonntag

    Zeit Temperatur Niederschläge Wind Luftdruck Luftfeuchtigkeit
    00:00 +26°C° 0,1 mm 2 m/S 598 mmHg 29%
    01:00 +25°C° 0,1 mm 1 m/S 597 mmHg 31%
    02:00 +25°C° 0,1 mm 1 m/S 597 mmHg 32%
    03:00 +24°C° 0 mm 1 m/S 597 mmHg 31%
    04:00 +24°C° 0 mm 1 m/S 597 mmHg 31%
    05:00 +23°C° 0 mm 1 m/S 596 mmHg 30%
    06:00 +24°C° 0 mm 1 m/S 597 mmHg 26%
    07:00 +25°C° 0 mm 1 m/S 597 mmHg 23%
    08:00 +25°C° 0 mm 1 m/S 598 mmHg 20%
    09:00 +26°C° 0 mm 1 m/S 598 mmHg 18%
    10:00 +28°C° 0 mm 1 m/S 598 mmHg 16%
    11:00 +29°C° 0 mm 1 m/S 598 mmHg 15%
    12:00 +30°C° 0 mm 1 m/S 598 mmHg 13%
    13:00 +31°C° 0 mm 1 m/S 598 mmHg 12%
    14:00 +32°C° 0 mm 2 m/S 598 mmHg 11%
    15:00 +32°C° 0 mm 2 m/S 598 mmHg 10%
    16:00 +32°C° 0 mm 2 m/S 598 mmHg 10%
    17:00 +34°C° 0 mm 2 m/S 598 mmHg 10%
    18:00 +32°C° 0 mm 2 m/S 598 mmHg 12%
    19:00 +31°C° 0 mm 2 m/S 598 mmHg 15%
    20:00 +30°C° 0 mm 2 m/S 598 mmHg 17%
    21:00 +29°C° 0 mm 2 m/S 598 mmHg 21%
    22:00 +28°C° 0 mm 2 m/S 598 mmHg 25%
    23:00 +27°C° 0 mm 2 m/S 598 mmHg 28%

    24 Juli, Montag

    Zeit Temperatur Niederschläge Wind Luftdruck Luftfeuchtigkeit
    00:00 +26°C° 0 mm 1 m/S 597 mmHg 31%
    01:00 +25°C° 0 mm 1 m/S 597 mmHg 34%
    02:00 +24°C° 0 mm 1 m/S 596 mmHg 37%
    03:00 +24°C° 0 mm 1 m/S 596 mmHg 36%
    04:00 +23°C° 0 mm 1 m/S 596 mmHg 35%
    05:00 +22°C° 0 mm 1 m/S 595 mmHg 35%
    06:00 +23°C° 0 mm 1 m/S 596 mmHg 30%
    07:00 +24°C° 0 mm 1 m/S 596 mmHg 25%
    08:00 +25°C° 0 mm 1 m/S 597 mmHg 20%
    09:00 +27°C° 0 mm 1 m/S 597 mmHg 18%
    10:00 +28°C° 0 mm 1 m/S 597 mmHg 15%
    11:00 +29°C° 0 mm 1 m/S 597 mmHg 13%
    12:00 +30°C° 0 mm 1 m/S 597 mmHg 12%
    13:00 +31°C° 0 mm 1 m/S 597 mmHg 11%
    14:00 +32°C° 0 mm 1 m/S 597 mmHg 9%
    15:00 +33°C° 0 mm 1 m/S 597 mmHg 9%
    16:00 +34°C° 0 mm 2 m/S 597 mmHg 9%
    17:00 +34°C° 0 mm 2 m/S 597 mmHg 9%
    18:00 +32°C° 0 mm 2 m/S 597 mmHg 11%
    19:00 +31°C° 0 mm 2 m/S 597 mmHg 14%
    20:00 +30°C° 0 mm 2 m/S 597 mmHg 17%
    21:00 +29°C° 0 mm 2 m/S 597 mmHg 21%
    22:00 +28°C° 0 mm 2 m/S 596 mmHg 25%
    23:00 +27°C° 0 mm 2 m/S 596 mmHg 29%

    25 Juli, Dienstag

    Zeit Temperatur Niederschläge Wind Luftdruck Luftfeuchtigkeit
    00:00 +26°C° 0 mm 2 m/S 596 mmHg 33%
    01:00 +26°C° 0 mm 1 m/S 596 mmHg 37%
    02:00 +25°C° 0 mm 1 m/S 595 mmHg 41%
    03:00 +24°C° 0 mm 1 m/S 595 mmHg 42%
    04:00 +23°C° 0 mm 1 m/S 595 mmHg 42%
    05:00 +23°C° 0 mm 1 m/S 595 mmHg 43%
    06:00 +24°C° 0 mm 1 m/S 595 mmHg 37%
    07:00 +25°C° 0 mm 1 m/S 596 mmHg 32%
    08:00 +26°C° 0 mm 1 m/S 596 mmHg 26%
    09:00 +27°C° 0 mm 1 m/S 596 mmHg 23%
    10:00 +28°C° 0 mm 1 m/S 597 mmHg 19%
    11:00 +30°C° 0 mm 1 m/S 597 mmHg 15%
    12:00 +31°C° 0 mm 1 m/S 597 mmHg 13%
    13:00 +32°C° 0 mm 1 m/S 597 mmHg 12%
    14:00 +33°C° 0 mm 1 m/S 597 mmHg 10%
    15:00 +33°C° 0 mm 1 m/S 597 mmHg 10%
    16:00 +34°C° 0 mm 2 m/S 597 mmHg 9%
    17:00 +35°C° 0 mm 2 m/S 597 mmHg 9%
    18:00 +34°C° 0 mm 2 m/S 597 mmHg 11%
    19:00 +32°C° 0 mm 2 m/S 597 mmHg 14%
    20:00 +31°C° 0 mm 2 m/S 597 mmHg 17%
    21:00 +30°C° 0 mm 2 m/S 597 mmHg 20%
    22:00 +29°C° 0 mm 2 m/S 597 mmHg 24%
    23:00 +28°C° 0 mm 2 m/S 597 mmHg 28%

    26 Juli, Mittwoch

    Zeit Temperatur Niederschläge Wind Luftdruck Luftfeuchtigkeit
    00:00 +27°C° 0 mm 2 m/S 596 mmHg 31%
    01:00 +26°C° 0 mm 1 m/S 596 mmHg 35%
    02:00 +25°C° 0 mm 1 m/S 596 mmHg 39%
    03:00 +25°C° 0 mm 1 m/S 596 mmHg 40%
    04:00 +24°C° 0 mm 1 m/S 596 mmHg 41%
    05:00 +23°C° 0 mm 1 m/S 596 mmHg 43%
    06:00 +24°C° 0 mm 1 m/S 596 mmHg 37%
    07:00 +25°C° 0 mm 1 m/S 597 mmHg 32%
    08:00 +26°C° 0 mm 1 m/S 597 mmHg 27%
    09:00 +28°C° 0 mm 1 m/S 598 mmHg 23%
    10:00 +29°C° 0 mm 1 m/S 598 mmHg 19%
    11:00 +30°C° 0 mm 1 m/S 598 mmHg 14%
    12:00 +31°C° 0 mm 1 m/S 598 mmHg 13%
    13:00 +32°C° 0 mm 1 m/S 598 mmHg 12%
    14:00 +33°C° 0 mm 1 m/S 598 mmHg 11%
    15:00 +34°C° 0 mm 1 m/S 598 mmHg 10%
    16:00 +35°C° 0 mm 2 m/S 598 mmHg 10%
    17:00 +35°C° 0 mm 2 m/S 598 mmHg 10%
    18:00 +34°C° 0 mm 2 m/S 598 mmHg 12%
    19:00 +32°C° 0 mm 2 m/S 598 mmHg 15%
    20:00 +31°C° 0 mm 2 m/S 598 mmHg 17%
    21:00 +30°C° 0 mm 2 m/S 598 mmHg 20%
    22:00 +29°C° 0 mm 2 m/S 598 mmHg 24%
    23:00 +28°C° 0 mm 2 m/S 598 mmHg 27%
    Mehr zeigen